Torna al catalogo

COSMOS 1877

AttivoMilitarePO
NORAD 18336·PAYLOAD·🇷🇺 Russia

Lanciato Sep 7, 1987 da Plesetsk Cosmodrome

Loading…

Prossimi Passaggi (prossime 24 ore)

TLE

AggiornatoSource: Space-Track

Epoca: Sep 14, 2026, 09:30 UTC

1 18336U 87074C   26257.39602369 -.00000005  00000-0 -85888-4 0  9995
2 18336  82.5596 240.4976 0001966 141.7494  26.7865 12.63668343799508

Traccia COSMOS 1877 in tempo reale con AllMySat

Download on the App Store